EW6452 Weather Reports


time (UTC)temp
C
wind
direction
speed
KPH
gust
KPH
rain 1hr
cm
rain 24hr
cm
rain mn
cm
humidity
%
barometer
mb
20260506175553 21 101 3.2 14.5 0.00 0.15 0.15 77 1012.3
20260506175055 21 38 1.6 14.5 0.00 0.15 0.15 76 1012.2
20260506174554 21 59 3.2 14.5 0.00 0.15 0.15 76 1012.3
20260506174053 21 72 1.6 8.0 0.00 0.15 0.15 79 1012.2
20260506173552 20 0 3.2 8.0 0.00 0.15 0.15 80 1012.2
20260506173122 20 360 1.6 9.7 0.00 0.15 0.15 80 1012.4
20260506172552 20 75 0.0 9.7 0.00 0.15 0.15 84 1012.5
20260506172053 18 96 3.2 9.7 0.00 0.15 0.15 83 1012.6
20260506171604 18 71 3.2 12.9 0.00 0.15 0.15 82 1012.4
20260506171052 18 93 3.2 12.9 0.00 0.15 0.15 84 1012.4
20260506170620 18 69 1.6 8.0 0.00 0.15 0.15 85 1012.7
20260506170109 17 0 0.0 8.0 0.00 0.15 0.15 87 1012.6
20260506165552 17 360 1.6 8.0 0.00 0.15 0.15 88 1012.7
20260506165052 17 360 1.6 6.4 0.03 0.15 0.15 88 1012.6
20260506164555 16 360 0.0 6.4 0.03 0.15 0.15 90 1012.8
20260506164052 16 360 3.2 14.5 0.05 0.15 0.15 90 1013.3
20260506163552 16 360 3.2 14.5 0.15 0.15 0.15 90 1013.5
20260506163059 16 360 3.2 14.5 0.15 0.15 0.15 91 1013.2
20260506162552 16 360 3.2 22.5 0.15 0.15 0.15 93 1013.1
20260506162052 15 360 1.6 22.5 0.15 0.15 0.15 92 1013.0
20260506161555 15 360 8.0 22.5 0.15 0.15 0.15 91 1013.3
20260506161052 15 360 6.4 16.1 0.15 0.15 0.15 91 1014.1
20260506160552 15 360 4.8 19.3 0.15 0.15 0.15 91 1014.5
20260506160055 16 360 4.8 19.3 0.15 0.15 0.15 91 1014.5
20260506155556 16 360 4.8 19.3 0.15 0.15 0.15 90 1014.1
20260506155055 16 360 3.2 16.1 0.13 0.13 0.13 90 1014.3
20260506154610 16 360 4.8 16.1 0.13 0.13 0.13 89 1014.2
20260506154052 16 360 4.8 14.5 0.10 0.10 0.10 88 1014.2
20260506153552 17 360 4.8 16.1 0.00 0.00 0.00 88 1014.3
20260506153056 17 360 4.8 16.1 0.00 0.00 0.00 88 1014.0
20260506152552 17 360 3.2 12.9 0.00 0.00 0.00 88 1013.8
20260506152052 17 360 4.8 17.7 0.00 0.00 0.00 87 1013.5
20260506151554 17 360 4.8 17.7 0.00 0.00 0.00 88 1012.9
20260506151052 17 360 4.8 17.7 0.00 0.00 0.00 87 1012.7
20260506150553 18 360 4.8 17.7 0.00 0.00 0.00 87 1012.7
20260506150055 18 360 6.4 16.1 0.00 0.00 0.00 86 1012.8
20260506145553 18 360 4.8 16.1 0.00 0.00 0.00 86 1012.4
20260506145052 19 360 4.8 20.9 0.00 0.00 0.00 86 1012.2
20260506144559 20 22 4.8 20.9 0.00 0.00 0.00 84 1011.7
20260506144054 20 56 4.8 20.9 0.00 0.00 0.00 82 1011.6
20260506143555 22 5 4.8 20.9 0.00 0.00 0.00 80 1011.6
20260506143055 24 62 3.2 12.9 0.00 0.00 0.00 79 1011.4
20260506142553 25 103 0.0 6.4 0.00 0.00 0.00 85 1010.8
20260506142052 25 0 0.0 6.4 0.00 0.00 0.00 84 1010.9
20260506141555 25 198 0.0 6.4 0.00 0.00 0.00 86 1010.7
20260506141055 25 116 1.6 6.4 0.00 0.00 0.00 87 1010.7
20260506140555 25 198 1.6 6.4 0.00 0.00 0.00 88 1010.6
20260506140051 24 168 0.0 6.4 0.00 0.00 0.00 87 1010.9
20260506135552 24 168 1.6 6.4 0.00 0.00 0.00 88 1010.9
20260506135052 24 168 1.6 6.4 0.00 0.00 0.00 89 1010.6
20260506134556 24 168 1.6 9.7 0.00 0.00 0.00 90 1010.3
20260506134055 23 196 3.2 11.3 0.00 0.00 0.00 91 1010.3
20260506133553 23 191 3.2 11.3 0.00 0.00 0.00 91 1010.4
20260506133116 23 200 1.6 9.7 0.00 0.00 0.00 91 1010.2
20260506132552 23 192 4.8 9.7 0.00 0.00 0.00 92 1010.2
20260506132053 23 191 1.6 9.7 0.00 0.00 0.00 92 1010.0
20260506131555 23 156 1.6 9.7 0.00 0.00 0.00 92 1010.0
20260506131052 23 201 1.6 4.8 0.00 0.00 0.00 93 1010.0
20260506130552 22 201 1.6 8.0 0.00 0.00 0.00 93 1010.0
20260506130120 22 201 1.6 8.0 0.00 0.00 0.00 93 1010.0
20260506125552 22 193 3.2 6.4 0.00 0.00 0.00 93 1010.0
20260506125052 22 198 1.6 4.8 0.00 0.00 0.00 93 1009.9
20260506124554 22 194 0.0 4.8 0.00 0.00 0.00 93 1009.8
20260506124052 22 194 1.6 4.8 0.00 0.00 0.00 93 1009.8
20260506123552 22 194 0.0 3.2 0.00 0.00 0.00 93 1009.7
20260506123054 22 0 0.0 3.2 0.00 0.00 0.00 93 1009.6
20260506122553 22 0 0.0 3.2 0.00 0.00 0.00 93 1009.7
20260506122051 22 194 0.0 6.4 0.00 0.00 0.00 93 1009.7
20260506121552 22 194 0.0 6.4 0.00 0.00 0.00 93 1009.6
20260506121053 22 0 0.0 4.8 0.00 0.00 0.00 93 1009.6
20260506120552 22 194 1.6 4.8 0.00 0.00 0.00 93 1009.7
20260506120058 22 194 1.6 4.8 0.00 0.00 0.00 93 1009.6
20260506115557 22 194 0.0 3.2 0.00 0.00 0.00 92 1009.6
20260506115053 22 194 0.0 3.2 0.00 0.00 0.00 92 1009.5
20260506114604 22 194 0.0 3.2 0.00 0.00 0.00 92 1009.5
20260506114052 22 0 0.0 3.2 0.00 0.00 0.00 92 1009.6
20260506113552 22 195 0.0 3.2 0.00 0.00 0.00 92 1009.6
20260506113055 22 0 0.0 3.2 0.00 0.00 0.00 92 1009.7
20260506112553 22 0 0.0 3.2 0.00 0.00 0.00 92 1009.7
20260506112055 22 195 0.0 3.2 0.00 0.00 0.00 92 1009.7
20260506111553 22 0 0.0 3.2 0.00 0.00 0.00 92 1009.7
20260506111052 22 0 0.0 3.2 0.00 0.00 0.00 92 1009.7
20260506110552 22 195 0.0 3.2 0.00 0.00 0.00 91 1009.6
20260506110054 23 0 0.0 4.8 0.00 0.00 0.00 91 1009.5
20260506105553 23 0 0.0 4.8 0.00 0.00 0.00 91 1009.7
20260506105053 23 195 1.6 4.8 0.00 0.00 0.00 91 1009.6
20260506104613 23 0 1.6 4.8 0.00 0.00 0.00 91 1009.5
20260506104052 23 194 1.6 8.0 0.00 0.00 0.00 91 1009.4
20260506103553 23 194 3.2 8.0 0.00 0.00 0.00 91 1009.3
20260506103055 23 157 1.6 8.0 0.00 0.00 0.00 90 1009.3
20260506102553 23 212 3.2 8.0 0.00 0.00 0.00 90 1009.3
20260506102053 23 200 3.2 6.4 0.00 0.00 0.00 90 1009.3
20260506101557 23 200 1.6 6.4 0.00 0.00 0.00 90 1009.2
20260506101052 23 200 1.6 4.8 0.00 0.00 0.00 90 1009.2
20260506100552 23 200 1.6 4.8 0.00 0.00 0.00 90 1009.2
20260506100054 23 200 1.6 8.0 0.00 0.00 0.00 89 1009.2
20260506095554 23 200 1.6 9.7 0.00 0.00 0.00 89 1009.2
20260506095053 23 200 3.2 9.7 0.00 0.00 0.00 89 1009.1
20260506094553 23 179 3.2 9.7 0.00 0.00 0.00 89 1008.9
20260506094052 23 209 3.2 9.7 0.00 0.00 0.00 89 1008.9
20260506093552 23 164 4.8 9.7 0.00 0.00 0.00 89 1008.9
20260506093052 23 190 4.8 9.7 0.00 0.00 0.00 89 1008.7
20260506092553 23 205 3.2 9.7 0.00 0.00 0.00 89 1008.7
20260506092052 23 172 3.2 9.7 0.00 0.00 0.00 89 1008.8
20260506091556 23 173 3.2 11.3 0.00 0.00 0.00 89 1008.6
20260506091054 23 202 4.8 11.3 0.00 0.00 0.00 89 1008.7
20260506090553 23 191 3.2 11.3 0.00 0.00 0.00 89 1008.5
20260506090055 23 176 4.8 9.7 0.00 0.00 0.00 89 1008.5
20260506085552 23 169 3.2 8.0 0.00 0.00 0.00 89 1008.4
20260506085054 23 186 3.2 9.7 0.00 0.00 0.00 89 1008.6
20260506084555 23 186 4.8 9.7 0.00 0.00 0.00 89 1008.7
20260506084052 23 211 4.8 16.1 0.00 0.00 0.00 88 1008.7
20260506083553 23 249 4.8 16.1 0.00 0.00 0.00 88 1008.6
20260506083055 23 179 3.2 16.1 0.00 0.00 0.00 88 1008.5
20260506082552 23 189 4.8 16.1 0.00 0.00 0.00 88 1008.5
20260506082053 23 174 4.8 14.5 0.00 0.00 0.00 88 1008.4
20260506081558 23 209 8.0 14.5 0.00 0.00 0.00 88 1008.3
20260506081053 23 183 6.4 14.5 0.00 0.00 0.00 88 1008.4
20260506080553 23 215 8.0 17.7 0.00 0.00 0.00 88 1008.3
20260506080104 23 157 6.4 17.7 0.00 0.00 0.00 88 1008.3
20260506073056 23 185 8.0 17.7 0.00 0.00 0.00 88 1008.6
20260506072553 23 173 8.0 16.1 0.00 0.00 0.00 88 1008.6
20260506072052 23 171 8.0 16.1 0.00 0.00 0.00 88 1008.7
20260506071617 23 205 8.0 20.9 0.00 0.00 0.00 88 1008.7
20260506071052 23 205 8.0 20.9 0.00 0.00 0.00 88 1008.7
20260506070552 23 161 9.7 19.3 0.00 0.00 0.00 88 1008.7
20260506062053 23 144 6.4 16.1 0.00 0.00 0.00 89 1008.7
20260506061556 23 180 8.0 16.1 0.00 0.00 0.00 89 1008.6
20260506061053 23 204 8.0 16.1 0.00 0.00 0.00 89 1008.5
20260506060555 23 209 6.4 17.7 0.00 0.00 0.00 89 1008.3
20260506051052 23 193 4.8 14.5 0.00 0.00 0.00 89 1008.9
20260506050553 23 210 6.4 17.7 0.00 0.00 0.00 89 1008.8
20260506045052 23 182 6.4 14.5 0.00 0.00 0.00 89 1008.9
20260506044610 23 198 4.8 14.5 0.00 0.00 0.00 89 1008.8
20260506044052 23 188 6.4 14.5 0.00 0.00 0.00 89 1008.8
20260506043552 23 166 4.8 12.9 0.00 0.00 0.00 89 1008.9
20260506043101 23 200 6.4 12.9 0.00 0.00 0.00 89 1008.7
20260506042553 23 197 4.8 14.5 0.00 0.00 0.00 88 1008.6
20260506042052 23 217 8.0 14.5 0.00 0.00 0.00 88 1008.5
20260506041558 23 159 4.8 12.9 0.00 0.00 0.00 88 1008.6
20260506041053 23 216 6.4 14.5 0.00 0.00 0.00 88 1008.7
20260506040553 23 192 4.8 14.5 0.00 0.00 0.00 88 1008.5
20260506040059 23 202 6.4 12.9 0.00 0.00 0.00 88 1008.4
20260506035553 23 173 4.8 16.1 0.00 0.00 0.00 88 1008.4
20260506035053 23 169 4.8 16.1 0.00 0.00 0.00 88 1008.3
20260506034601 23 178 4.8 11.3 0.00 0.00 0.00 87 1008.2
20260506034052 23 189 4.8 17.7 0.00 0.00 0.00 87 1008.0
20260506033552 24 182 6.4 17.7 0.00 0.00 0.00 87 1008.2
20260506033055 24 163 4.8 12.9 0.00 0.00 0.00 87 1008.1
20260506032553 24 168 4.8 12.9 0.00 0.00 0.00 86 1008.2
20260506032053 24 168 4.8 14.5 0.00 0.00 0.00 86 1008.0
20260506031557 24 206 4.8 14.5 0.00 0.00 0.00 86 1007.9
20260506031055 24 178 6.4 14.5 0.00 0.00 0.00 86 1007.7
20260506030553 24 203 6.4 12.9 0.00 0.00 0.00 86 1007.7
20260506030056 24 178 6.4 12.9 0.00 0.00 0.00 85 1007.7
20260506025552 25 176 6.4 12.9 0.00 0.00 0.00 85 1007.8
20260506025052 25 184 4.8 12.9 0.00 0.00 0.00 85 1007.7
20260506024552 25 162 8.0 12.9 0.00 0.00 0.00 85 1007.7
20260506024055 25 209 4.8 12.9 0.00 0.00 0.00 85 1007.5
20260506023552 25 127 3.2 8.0 0.00 0.00 0.00 84 1007.4
20260506023055 25 184 3.2 9.7 0.00 0.00 0.00 84 1007.4
20260506022553 25 184 3.2 9.7 0.00 0.00 0.00 84 1007.3
20260506022053 25 163 3.2 8.0 0.00 0.00 0.00 84 1007.2
20260506021558 25 167 1.6 8.0 0.00 0.00 0.00 83 1007.1
20260506021053 25 183 1.6 9.7 0.00 0.00 0.00 83 1007.1
20260506020555 25 159 1.6 9.7 0.00 0.00 0.00 83 1007.0
20260506020059 25 157 3.2 9.7 0.00 0.00 0.00 83 1006.9
20260506015553 25 185 3.2 8.0 0.00 0.00 0.00 83 1006.8
20260506015055 25 158 1.6 8.0 0.00 0.00 0.00 83 1006.9
20260506014600 25 158 1.6 8.0 0.00 0.00 0.00 83 1006.9
20260506014054 25 158 1.6 6.4 0.00 0.00 0.00 82 1006.8
20260506013552 25 158 1.6 8.0 0.00 0.00 0.00 82 1006.7
20260506013055 25 158 3.2 11.3 0.00 0.00 0.00 81 1006.8
20260506012552 25 175 3.2 11.3 0.00 0.00 0.00 81 1006.8
20260506012058 25 205 1.6 8.0 0.00 0.00 0.00 81 1006.7
20260506011556 25 169 3.2 8.0 0.00 0.00 0.00 81 1006.7
20260506011052 26 175 3.2 6.4 0.00 0.00 0.00 81 1006.6
20260506010554 26 171 1.6 6.4 0.00 0.00 0.00 80 1006.7
20260506010058 26 183 1.6 8.0 0.00 0.00 0.00 80 1006.8
20260506005553 26 183 1.6 8.0 0.00 0.00 0.00 79 1006.7
20260506005053 26 195 1.6 9.7 0.00 0.00 0.00 79 1006.8
20260506004554 26 180 3.2 9.7 0.00 0.00 0.00 78 1006.7
20260506004053 26 178 3.2 8.0 0.00 0.00 0.00 78 1006.7
20260506003557 26 167 3.2 11.3 0.00 0.00 0.00 78 1006.9
20260506003112 26 183 3.2 11.3 0.00 0.00 0.00 77 1006.8
20260506002552 26 195 4.8 9.7 0.00 0.00 0.00 77 1006.8
20260506002053 26 173 4.8 9.7 0.00 0.00 0.00 77 1006.7
20260506001611 26 185 3.2 8.0 0.00 0.00 0.00 78 1006.7
20260506001053 26 205 3.2 8.0 0.00 0.00 0.00 77 1006.8
20260506000553 27 186 3.2 9.7 0.00 0.00 0.00 76 1006.8
20260506000058 27 189 3.2 11.3 0.00 0.00 0.00 76 1006.8
20260505235552 27 192 4.8 12.9 0.00 0.00 0.00 75 1006.8
20260505235052 27 131 3.2 12.9 0.00 0.00 0.00 75 1006.8
20260505234611 27 131 4.8 12.9 0.00 0.00 0.00 75 1006.7
20260505234053 27 175 4.8 14.5 0.00 0.00 0.00 75 1006.7
20260505233553 27 175 6.4 14.5 0.00 0.00 0.00 75 1006.4
20260505233053 27 173 4.8 14.5 0.00 0.00 0.00 74 1006.5
20260505232553 27 177 4.8 14.5 0.00 0.00 0.00 76 1006.4
20260505232056 27 214 6.4 14.5 0.00 0.00 0.00 76 1006.2
20260505231600 27 203 6.4 14.5 0.00 0.00 0.00 76 1006.1
20260505231052 27 166 4.8 17.7 0.00 0.00 0.00 77 1006.0
20260505230553 27 215 6.4 17.7 0.00 0.00 0.00 77 1006.1
20260505230058 27 175 4.8 16.1 0.00 0.00 0.00 76 1006.1
20260505225556 27 176 4.8 16.1 0.00 0.00 0.00 75 1006.2
20260505225053 27 183 8.0 16.1 0.00 0.00 0.00 73 1006.0
20260505224601 27 200 4.8 16.1 0.00 0.00 0.00 74 1006.0
20260505224055 27 207 9.7 16.1 0.00 0.00 0.00 73 1006.0
20260505223554 27 179 6.4 20.9 0.00 0.00 0.00 74 1006.0
20260505223108 27 175 8.0 20.9 0.00 0.00 0.00 73 1006.0
20260505222553 27 152 8.0 17.7 0.00 0.00 0.00 74 1006.0
20260505222053 27 184 6.4 17.7 0.00 0.00 0.00 75 1005.9
20260505221557 27 189 9.7 16.1 0.00 0.00 0.00 74 1006.0
20260505221054 27 128 6.4 16.1 0.00 0.00 0.00 74 1006.1
20260505220553 27 170 6.4 19.3 0.00 0.00 0.00 73 1006.2
20260505220059 27 128 8.0 20.9 0.00 0.00 0.00 73 1006.2
20260505215558 28 179 8.0 20.9 0.00 0.00 0.00 72 1006.1
20260505215053 28 180 8.0 17.7 0.00 0.00 0.00 71 1006.3
20260505214602 28 181 9.7 17.7 0.00 0.00 0.00 70 1006.5
20260505214053 28 205 4.8 22.5 0.00 0.00 0.00 72 1006.6
20260505213553 28 257 8.0 22.5 0.00 0.00 0.00 71 1006.6
20260505213054 28 209 9.7 20.9 0.00 0.00 0.00 71 1006.4
20260505212553 28 173 11.3 19.3 0.00 0.00 0.00 70 1006.5
20260505212053 28 205 8.0 19.3 0.00 0.00 0.00 70 1006.7
20260505211617 28 195 8.0 19.3 0.00 0.00 0.00 73 1007.0
20260505211054 28 173 9.7 22.5 0.00 0.00 0.00 70 1006.8
20260505210552 28 162 12.9 27.4 0.00 0.00 0.00 71 1006.8
20260505210056 27 191 9.7 29.0 0.00 0.00 0.00 72 1006.8
20260505205552 27 189 14.5 29.0 0.00 0.00 0.00 71 1006.8
20260505205052 27 229 11.3 22.5 0.00 0.00 0.00 72 1007.0
20260505204556 27 176 9.7 22.5 0.00 0.00 0.00 73 1007.0
20260505204057 27 165 11.3 20.9 0.00 0.00 0.00 72 1007.1
20260505203554 27 186 8.0 16.1 0.00 0.00 0.00 75 1007.0
20260505203121 27 241 9.7 22.5 0.00 0.00 0.00 74 1007.1
20260505202554 27 138 9.7 22.5 0.00 0.00 0.00 73 1007.3
20260505202054 27 214 8.0 20.9 0.00 0.00 0.00 74 1007.2
20260505201555 27 229 11.3 20.9 0.00 0.00 0.00 74 1007.3
20260505201053 27 205 9.7 20.9 0.00 0.00 0.00 74 1007.5
20260505200553 27 161 8.0 20.9 0.00 0.00 0.00 74 1007.6
20260505200055 27 225 11.3 22.5 0.00 0.00 0.00 73 1007.6
20260505195552 27 180 9.7 22.5 0.00 0.00 0.00 76 1007.6
20260505195052 27 176 11.3 22.5 0.00 0.00 0.00 75 1007.7
20260505194558 27 114 11.3 22.5 0.00 0.00 0.00 74 1007.8
20260505194053 27 177 8.0 16.1 0.00 0.00 0.00 75 1007.8
20260505193553 27 129 4.8 19.3 0.00 0.00 0.00 76 1007.9
20260505193059 26 207 9.7 19.3 0.00 0.00 0.00 76 1008.0
20260505192557 26 175 9.7 20.9 0.00 0.00 0.00 75 1007.8
20260505192054 26 210 9.7 20.9 0.00 0.00 0.00 75 1008.0
20260505191602 26 200 8.0 16.1 0.00 0.00 0.00 74 1008.1
20260505191053 27 192 6.4 17.7 0.00 0.00 0.00 76 1008.0
20260505190553 27 146 6.4 17.7 0.00 0.00 0.00 76 1008.2
20260505190056 26 205 8.0 16.1 0.00 0.00 0.00 75 1008.2
20260505185553 26 162 8.0 14.5 0.00 0.00 0.00 78 1008.2
20260505185053 26 228 4.8 16.1 0.00 0.00 0.00 77 1008.3
20260505184558 25 182 4.8 16.1 0.00 0.00 0.00 78 1008.3
20260505184054 25 182 4.8 16.1 0.00 0.00 0.00 77 1008.5
20260505183553 25 275 4.8 16.1 0.00 0.00 0.00 79 1008.6
20260505183054 25 170 8.0 16.1 0.00 0.00 0.00 78 1008.7
20260505182555 25 180 4.8 14.5 0.00 0.00 0.00 79 1008.9
20260505182054 25 186 8.0 14.5 0.00 0.00 0.00 78 1008.8
20260505181552 25 182 3.2 17.7 0.00 0.00 0.00 79 1008.9
20260505181052 25 165 8.0 19.3 0.00 0.00 0.00 81 1008.9
20260505180553 25 180 8.0 19.3 0.00 0.00 0.00 79 1009.0
20260505180057 25 191 3.2 19.3 0.00 0.00 0.00 80 1009.0